K3JAR-3 Weather Reports


time (UTC)temp
C
wind
direction
speed
KPH
gust
KPH
rain 1hr
cm
rain 24hr
cm
rain mn
cm
humidity
%
barometer
mb
20260903091024 24 88 3.2 3.2 0.00 0.00 0.00 87 1014.7
20260903090106 24 76 1.6 3.2 0.00 0.00 0.00 87 1014.7
20260903085030 24 74 3.2 3.2 0.00 0.00 0.00 88 1014.7
20260903084015 24 36 3.2 4.8 0.00 0.00 0.00 88 1014.6
20260903083018 24 0.0 0.0 0.00 0.00 0.00 86 1014.7
20260903082021 24 157 0.0 1.6 0.00 0.00 0.00 86 1014.8
20260903081024 25 163 0.0 3.2 0.00 0.00 0.00 84 1014.8
20260903080022 25 0.0 0.0 0.00 0.00 0.00 84 1014.7
20260903075024 25 0.0 0.0 0.00 0.00 0.00 84 1014.7
20260903074016 25 219 0.0 3.2 0.00 0.00 0.00 83 1014.9
20260903073021 25 172 3.2 4.8 0.00 0.00 0.00 82 1015.0
20260903072024 25 154 3.2 4.8 0.00 0.00 0.00 81 1015.1
20260903071026 25 176 4.8 6.4 0.00 0.00 0.00 80 1015.0
20260903070029 25 162 3.2 3.2 0.00 0.00 0.00 80 1014.8
20260903065015 25 174 1.6 3.2 0.00 0.00 0.00 80 1014.9
20260903064019 25 177 3.2 3.2 0.00 0.00 0.00 80 1015.1
20260903063021 25 170 1.6 3.2 0.00 0.00 0.00 79 1015.1
20260903062044 26 155 3.2 3.2 0.00 0.00 0.00 78 1015.1
20260903061048 26 154 4.8 6.4 0.00 0.00 0.00 77 1015.3
20260903060032 26 150 3.2 6.4 0.00 0.00 0.00 77 1015.4
20260903055036 26 161 4.8 6.4 0.00 0.00 0.00 76 1015.6
20260903054019 26 146 3.2 6.4 0.00 0.00 0.00 75 1015.6
20260903053022 26 139 4.8 11.3 0.00 0.00 0.00 74 1015.6
20260903052026 27 152 6.4 8.0 0.00 0.00 0.00 73 1015.6
20260903051050 27 116 4.8 11.3 0.00 0.00 0.00 72 1015.4
20260903050033 27 112 6.4 12.9 0.00 0.00 0.00 71 1015.4
20260903045017 27 121 4.8 8.0 0.00 0.00 0.00 71 1015.3
20260903044021 27 95 8.0 12.9 0.00 0.00 0.00 70 1015.3
20260903043024 27 105 6.4 8.0 0.00 0.00 0.00 69 1015.3
20260903042021 28 98 4.8 8.0 0.00 0.00 0.00 68 1015.3
20260903041023 28 96 8.0 14.5 0.00 0.00 0.00 67 1015.3
20260903040016 28 100 9.7 16.1 0.00 0.00 0.00 67 1015.3
20260903035019 28 94 8.0 12.9 0.00 0.00 0.00 67 1015.2
20260903034022 28 136 6.4 12.9 0.00 0.00 0.00 67 1015.2
20260903033020 29 92 11.3 17.7 0.00 0.00 0.00 66 1015.2
20260903032023 29 102 12.9 16.1 0.00 0.00 0.00 65 1015.2
20260903031047 30 118 9.7 14.5 0.00 0.00 0.00 63 1014.9
20260903030030 30 95 11.3 16.1 0.00 0.00 0.00 62 1014.9
20260903025015 30 90 12.9 17.7 0.00 0.00 0.00 62 1014.7
20260903024018 30 83 14.5 22.5 0.00 0.00 0.00 61 1014.6
20260903023022 30 99 9.7 16.1 0.00 0.00 0.00 60 1014.5
20260903022025 30 102 12.9 20.9 0.00 0.00 0.00 60 1014.4
20260903021028 31 113 9.7 16.1 0.00 0.00 0.00 59 1014.2
20260903020031 31 116 9.7 14.5 0.00 0.00 0.00 57 1014.1
20260903015017 31 96 9.7 14.5 0.00 0.00 0.00 57 1014.1
20260903014020 31 122 8.0 14.5 0.00 0.00 0.00 57 1014.0
20260903013028 32 121 6.4 9.7 0.00 0.00 0.00 56 1013.9
20260903012026 32 103 8.0 16.1 0.00 0.00 0.00 56 1013.8
20260903011030 32 117 8.0 12.9 0.00 0.00 0.00 55 1013.7
20260903010022 32 118 9.7 16.1 0.00 0.00 0.00 54 1013.6
20260903005019 33 150 8.0 11.3 0.00 0.00 0.00 51 1013.5
20260903004022 33 89 9.7 11.3 0.00 0.00 0.00 49 1013.5
20260903003019 34 94 14.5 17.7 0.00 0.00 0.00 47 1013.4
20260903002056 35 90 14.5 19.3 0.00 0.00 0.00 47 1013.4
20260903001052 35 76 16.1 24.1 0.00 0.00 0.00 47 1013.4
20260903000022 36 80 16.1 32.2 0.00 0.00 0.00 43 1013.2
20260902235020 36 86 14.5 20.9 0.00 0.00 0.00 42 1013.1
20260902234024 36 75 14.5 19.3 0.00 0.00 0.00 42 1013.0
20260902233027 36 102 11.3 19.3 0.00 0.00 0.00 41 1013.0
20260902232100 37 68 11.3 19.3 0.00 0.00 0.00 40 1013.0
20260902231021 37 66 9.7 14.5 0.00 0.00 0.00 39 1013.0
20260902230019 37 75 9.7 12.9 0.00 0.00 0.00 39 1013.1
20260902225022 37 50 6.4 14.5 0.00 0.00 0.00 38 1013.1
20260902224026 37 45 9.7 22.5 0.00 0.00 0.00 39 1013.1
20260902223029 37 19 11.3 16.1 0.00 0.00 0.00 38 1013.1
20260902222032 38 51 12.9 16.1 0.00 0.00 0.00 38 1013.1
20260902221017 37 20 8.0 11.3 0.00 0.00 0.00 38 1013.3
20260902220040 37 40 8.0 12.9 0.00 0.00 0.00 38 1013.5
20260902215104 37 34 14.5 25.7 0.00 0.00 0.00 37 1013.6
20260902214027 37 32 12.9 17.7 0.00 0.00 0.00 38 1013.6
20260902213030 37 69 8.0 12.9 0.00 0.00 0.00 40 1013.7
20260902212020 37 65 12.9 24.1 0.00 0.00 0.00 39 1013.8
20260902211019 37 30 11.3 16.1 0.00 0.00 0.00 40 1013.9
20260902210042 37 63 12.9 17.7 0.00 0.00 0.00 41 1014.0
20260902205019 37 50 12.9 17.7 0.00 0.00 0.00 39 1014.1
20260902204016 37 43 11.3 17.7 0.00 0.00 0.00 38 1014.3
20260902203052 37 32 12.9 17.7 0.00 0.00 0.00 38 1014.4
20260902202042 37 356 9.7 14.5 0.00 0.00 0.00 39 1014.5
20260902201021 37 8 4.8 12.9 0.00 0.00 0.00 40 1014.7
20260902200024 38 21 11.3 19.3 0.00 0.00 0.00 40 1014.7
20260902195026 37 66 6.4 11.3 0.00 0.00 0.00 40 1014.9
20260902194035 37 13 9.7 16.1 0.00 0.00 0.00 42 1015.2
20260902193015 37 55 8.0 11.3 0.00 0.00 0.00 42 1015.3
20260902192019 37 43 9.7 14.5 0.00 0.00 0.00 42 1015.4
20260902191021 37 15 8.0 11.3 0.00 0.00 0.00 43 1015.6
20260902190024 36 23 8.0 12.9 0.00 0.00 0.00 43 1015.8
20260902185028 36 64 11.3 17.7 0.00 0.00 0.00 41 1015.9
20260902184031 36 24 8.0 14.5 0.00 0.00 0.00 43 1016.1
20260902183017 36 15 6.4 9.7 0.00 0.00 0.00 44 1016.2
20260902182025 35 12 9.7 17.7 0.00 0.00 0.00 47 1016.4
20260902181043 35 358 4.8 9.7 0.00 0.00 0.00 46 1016.6
20260902180026 36 75 6.4 11.3 0.00 0.00 0.00 46 1017.0
20260902175050 35 114 3.2 11.3 0.00 0.00 0.00 49 1017.1
20260902174015 35 17 3.2 9.7 0.00 0.00 0.00 48 1017.3
20260902173018 36 349 8.0 14.5 0.00 0.00 0.00 48 1017.4
20260902172022 36 111 6.4 11.3 0.00 0.00 0.00 47 1017.5
20260902171019 35 129 3.2 8.0 0.00 0.00 0.00 51 1017.7
20260902170017 35 82 6.4 12.9 0.00 0.00 0.00 48 1017.8
20260902165037 35 67 4.8 9.7 0.00 0.00 0.00 49 1017.9
20260902164017 33 174 4.8 6.4 0.00 0.00 0.00 52 1018.0
20260902163020 33 127 6.4 12.9 0.00 0.00 0.00 52 1018.1
20260902162023 33 86 6.4 11.3 0.00 0.00 0.00 50 1018.1
20260902161046 33 86 6.4 11.3 0.00 0.00 0.00 52 1018.2
20260902160030 33 84 6.4 9.7 0.00 0.00 0.00 53 1018.3
20260902155014 33 94 6.4 9.7 0.00 0.00 0.00 53 1018.2
20260902154018 33 82 6.4 9.7 0.00 0.00 0.00 55 1018.3
20260902153021 33 94 4.8 9.7 0.00 0.00 0.00 54 1018.2
20260902152024 31 94 3.2 4.8 0.00 0.00 0.00 58 1018.2
20260902151028 31 88 4.8 6.4 0.00 0.00 0.00 60 1018.2
20260902150031 31 127 3.2 6.4 0.00 0.00 0.00 61 1018.1
20260902145016 31 96 3.2 8.0 0.00 0.00 0.00 61 1018.1
20260902144020 31 107 3.2 6.4 0.00 0.00 0.00 62 1018.2
20260902143023 30 127 3.2 6.4 0.00 0.00 0.00 65 1018.1
20260902142026 30 150 4.8 6.4 0.00 0.00 0.00 65 1018.1
20260902141049 30 105 4.8 8.0 0.00 0.00 0.00 65 1018.1
20260902140016 30 94 4.8 8.0 0.00 0.00 0.00 66 1018.0
20260902135018 29 117 3.2 6.4 0.00 0.00 0.00 67 1018.1
20260902134022 28 74 4.8 8.0 0.00 0.00 0.00 69 1018.1
20260902133019 28 116 4.8 6.4 0.00 0.00 0.00 71 1018.1
20260902132016 28 111 4.8 8.0 0.00 0.00 0.00 72 1018.1
20260902131032 27 110 3.2 6.4 0.00 0.00 0.00 73 1017.9
20260902130016 27 94 4.8 6.4 0.00 0.00 0.00 73 1017.7
20260902125020 27 90 3.2 4.8 0.00 0.00 0.00 75 1017.6
20260902124024 26 97 0.0 4.8 0.00 0.00 0.00 77 1017.5
20260902123027 26 101 0.0 3.2 0.00 0.00 0.00 81 1017.4
20260902122030 25 104 4.8 6.4 0.00 0.00 0.00 83 1017.3
20260902121015 25 99 1.6 3.2 0.00 0.00 0.00 84 1017.3
20260902120019 25 75 1.6 1.6 0.00 0.00 0.00 84 1017.5
20260902115017 25 97 3.2 4.8 0.00 0.00 0.00 84 1017.5
20260902114020 25 108 3.2 4.8 0.00 0.00 0.00 83 1017.5
20260902113023 25 94 0.0 3.2 0.00 0.00 0.00 82 1017.4
20260902112020 25 0.0 0.0 0.00 0.00 0.00 81 1017.3
20260902111024 25 90 0.0 1.6 0.00 0.00 0.00 81 1017.3
20260902110027 25 0.0 0.0 0.00 0.00 0.00 80 1017.3
20260902105035 25 67 0.0 1.6 0.00 0.00 0.00 80 1017.3
20260902104015 25 99 3.2 4.8 0.00 0.00 0.00 80 1017.3
20260902103019 25 118 1.6 3.2 0.00 0.00 0.00 80 1017.3
20260902102022 25 103 3.2 6.4 0.00 0.00 0.00 79 1017.3
20260902101025 25 112 0.0 1.6 0.00 0.00 0.00 77 1017.3
20260902100022 26 93 1.6 4.8 0.00 0.00 0.00 77 1017.3
20260902095019 26 100 3.2 3.2 0.00 0.00 0.00 76 1017.3
20260902094017 26 0.0 0.0 0.00 0.00 0.00 75 1017.2
20260902093025 26 168 0.0 1.6 0.00 0.00 0.00 74 1017.2
20260902092028 26 168 3.2 4.8 0.00 0.00 0.00 74 1017.2